Temperature
17 17 17 17 17 17 17 17 17 17 17 17 17 17 17 17 17 18 18 18 18 18 18 18 18 18 18 18 18 18 18 18 18 18 17 17 17 17 17 17 17 17 17
16 16 16 16 16 16 16 16 16 16 16 16 17 17 17 17 17 17 17 17 17 18 18 18 18 18 18 18 18 18 18 18 18 18 18 17 17 17 17 17 17 17 17
16 16 16 16 16 16 16 16 16 16 16 16 16 16 16 17 17 17 17 17 17 17 18 18 18 18 18 18 18 18 18 18 18 18 18 18 17 17 17 17 17 17 17
15 15 15 15 15 15 15 15 16 16 16 16 16 16 16 16 17 17 17 17 17 17 17 17 18 18 18 18 18 18 18 18 18 18 18 18 18 17 17 17 17 17 17
14 14 14 14 14 14 15 15 15 15 15 15 15 16 16 16 16 16 17 17 17 17 17 17 17 17 17 18 18 18 18 18 18 18 18 18 18 18 18 17 17 17 17
14 14 14 14 14 14 14 14 14 14 14 15 15 15 16 16 16 16 16 17 17 17 17 17 17 17 17 17 17 18 18 18 18 18 18 18 18 18 18 18 17 17 17
14 14 13 14 13 13 13 14 13 14 14 14 15 15 15 16 17 17 17 17 17 17 17 17 17 17 17 17 17 17 18 18 18 18 18 18 18 18 18 18 17 17 17
13 13 13 13 13 13 13 13 13 13 13 14 14 14 15 16 17 17 17 17 17 17 17 16 16 16 17 17 17 17 17 17 17 18 18 18 18 18 18 18 18 17 17
13 13 13 12 12 13 13 13 13 13 13 13 14 14 14 15 15 16 16 16 16 16 16 16 16 16 16 16 16 16 17 17 17 17 17 18 18 18 18 17 18 17 17
13 13 12 12 12 12 12 12 13 13 13 13 13 14 14 14 14 14 16 16 16 16 16 16 16 16 16 16 16 16 16 16 16 17 17 17 17 18 18 17 17 17 17
13 13 13 12 12 12 12 12 12 12 12 12 12 13 13 13 14 14 14 15 15 16 16 16 16 16 16 16 16 16 16 16 16 16 16 17 17 17 17 17 17 17 17
14 14 13 12 12 12 12 12 12 12 12 12 12 12 12 13 13 14 14 14 15 15 15 15 15 15 15 16 16 16 16 16 16 16 16 16 16 16 17 17 17 17 17
14 13 13 12 12 12 12 11 11 11 11 11 12 12 12 12 12 13 13 13 14 14 15 15 15 15 15 15 15 15 15 15 15 15 15 16 16 16 16 16 17 17 17
13 13 12 12 12 11 11 11 11 11 11 11 11 11 11 12 12 12 12 13 13 13 14 15 15 15 15 15 15 15 15 15 15 15 15 15 15 16 16 16 16 16 16
12 12 12 12 11 11 11 11 11 11 11 11 11 11 11 11 11 12 12 12 12 12 13 14 14 14 14 14 14 14 14 14 15 15 15 15 15 15 15 16 16 16 16
12 12 12 11 11 11 11 11 11 11 11 11 11 11 11 11 11 11 11 11 12 12 12 13 13 14 14 14 14 14 14 14 14 14 14 15 15 15 15 15 15 16 16
12 12 12 11 11 11 11 11 11 11 11 11 10 10 11 11 11 11 11 11 11 11 12 12 12 13 13 13 13 13 13 14 14 14 14 14 15 15 15 15 15 15 16
12 12 11 11 11 11 11 11 11 11 10 10 10 10 10 10 10 10 10 10 11 11 11 11 12 12 12 13 13 13 13 13 13 14 14 14 14 14 15 15 15 15 15
12 12 11 11 11 11 11 11 10 10 10 10 10 10 10 10 10 10 10 10 10 10 11 11 11 11 12 12 12 13 13 13 13 14 14 14 14 14 14 15 15 15 15
12 11 11 11 11 11 11 10 10 10 10 10 10 10 10 10 10 10 10 10 10 10 10 10 11 11 12 12 12 12 13 13 13 13 13 14 14 14 14 14 14 15 15
12 11 11 11 11 11 11 11 11 10 10 10 10 10 10 10 10 10 10 10 10 10 10 10 10 11 11 12 12 12 12 13 13 13 13 13 14 14 14 14 14 14 15
12 12 11 11 11 11 11 11 11 10 10 10 10 10 9 9 10 10 10 10 10 9 9 9 9 10 10 11 11 11 12 12 12 13 13 13 13 13 14 14 14 14 14
12 12 11 11 11 11 10 10 10 10 10 10 10 10 9 9 10 10 9 9 9 9 9 9 9 10 10 10 10 11 11 11 12 12 12 12 13 13 13 13 14 14 14
12 12 11 11 11 11 10 10 10 10 10 10 10 9 9 9 9 9 9 9 9 9 9 9 9 10 10 10 10 10 10 10 11 11 12 12 12 13 13 13 13 13 14
12 12 12 11 11 11 10 10 10 10 10 10 9 9 9 9 9 9 9 9 9 9 9 9 9 9 9 9 9 9 10 10 10 11 12 12 12 12 12 13 13 13 13
13 12 12 11 11 11 11 10 10 10 10 9 9 9 9 9 9 9 9 9 8 8 8 8 9 9 9 9 9 9 9 9 10 10 11 11 12 12 12 12 13 13 13
Wind_Speed
2 3 2 3 4 4 2 1 3 3 4 6 8 8 7 9 10 10 8 17 19 20 20 20 20 20 20 20 20 20 19 18 18 18 17 16 16 16 15 15 14 13 13
4 4 3 2 3 3 2 2 3 3 3 3 5 7 8 9 9 11 10 14 19 21 21 21 21 21 21 22 22 22 21 21 20 20 19 18 18 18 17 16 16 15 14
6 5 4 3 3 4 3 3 3 3 4 5 5 6 6 8 8 10 11 10 14 19 22 23 23 23 23 23 23 23 24 23 23 22 22 21 21 20 19 19 18 17 16
6 6 4 3 5 6 4 3 3 2 3 3 4 5 5 5 7 10 11 12 13 14 19 24 24 24 24 24 24 25 26 26 25 25 24 24 23 22 22 21 20 19 19
6 6 4 3 5 4 3 5 4 4 4 5 5 6 6 5 6 8 8 11 13 14 14 19 25 26 26 26 26 25 26 27 27 27 26 26 25 24 24 23 23 22 21
7 7 5 5 5 4 4 4 5 4 4 5 7 7 5 6 6 7 8 8 10 13 15 15 16 21 26 27 27 27 27 27 28 29 28 28 27 26 26 25 25 24 23
5 5 4 5 4 4 5 5 5 6 5 4 4 5 6 8 8 7 6 5 5 7 10 12 13 13 15 26 29 28 29 28 29 30 30 29 29 28 28 27 27 26 25
4 6 5 5 5 5 5 4 4 4 6 5 4 5 5 6 3 4 3 4 4 2 3 7 9 12 13 13 20 28 30 30 30 30 31 31 30 30 29 29 28 28 27
3 4 4 4 5 6 5 5 5 5 5 6 5 3 3 4 6 4 4 2 2 3 3 3 6 9 12 12 13 20 29 31 31 31 31 32 31 31 31 30 30 29 28
3 2 2 3 4 5 6 6 5 5 6 5 5 4 3 3 3 4 5 4 2 3 4 4 3 6 9 10 12 15 20 28 31 32 32 32 32 32 32 31 31 30 29
4 4 2 1 3 5 5 5 5 5 5 6 5 5 5 4 5 5 6 6 5 4 3 4 3 3 7 8 10 13 16 21 26 30 31 31 32 33 32 32 32 31 30
2 2 1 1 3 4 4 5 5 6 5 5 5 5 6 5 5 4 5 6 5 5 4 2 2 3 4 6 8 8 11 15 18 23 27 29 30 32 33 33 33 32 31
2 2 2 2 3 4 4 5 5 6 6 6 5 5 5 6 5 5 5 6 6 6 6 4 3 3 4 3 3 5 8 11 16 19 21 24 27 28 30 31 32 33 32
4 2 2 3 4 5 6 5 5 6 6 5 7 6 5 6 6 5 5 5 6 6 6 7 3 2 2 3 3 5 6 8 12 17 20 22 23 26 28 30 32 32 32
5 4 4 5 5 5 5 6 5 6 6 6 6 7 5 5 5 5 5 5 5 7 7 7 4 2 2 5 6 5 6 8 10 15 18 20 21 24 26 29 30 31 31
5 5 6 6 6 6 6 6 6 7 6 6 6 7 6 6 6 5 5 5 5 6 8 6 6 4 3 3 6 7 7 9 11 14 17 19 21 23 25 27 29 30 31
5 6 6 7 7 7 7 6 7 8 8 7 7 8 7 7 6 5 6 5 6 6 8 7 6 6 5 5 3 6 8 8 10 14 17 19 20 21 23 25 28 29 30
6 6 6 6 7 8 7 6 7 8 7 8 8 8 8 8 8 7 6 7 7 7 7 9 7 7 7 6 6 6 5 8 8 11 15 17 18 20 22 24 26 27 29
6 6 6 7 7 7 7 7 7 7 7 8 8 8 8 8 8 7 7 7 7 8 6 7 7 6 7 6 6 6 7 5 7 9 12 15 17 18 19 21 23 25 27
6 7 6 7 7 8 8 8 8 7 7 8 8 8 8 8 9 8 8 8 8 8 8 8 7 7 7 7 6 6 6 5 5 6 6 8 12 16 18 19 21 23 26
8 7 6 7 7 8 8 5 5 7 6 7 8 8 9 10 11 9 10 7 7 6 6 7 7 7 7 6 5 5 6 5 4 4 4 5 5 7 10 15 18 20 23
6 6 7 7 8 9 2 1 4 7 7 8 9 9 9 11 13 15 16 15 12 10 8 8 8 8 8 7 5 6 5 5 4 3 3 4 4 5 5 8 14 18 21
6 7 7 7 8 8 8 8 8 6 8 9 9 9 11 13 10 8 10 13 15 17 16 11 11 11 10 9 7 7 7 6 6 3 3 4 3 4 3 5 12 17 19
6 6 7 8 8 10 9 10 10 8 9 10 11 11 11 11 12 9 8 8 9 10 13 13 12 13 12 10 8 7 8 8 7 5 5 4 3 2 1 1 6 12 16
6 7 8 8 8 8 9 11 11 7 8 11 11 12 11 10 10 9 8 8 9 9 12 15 15 15 16 15 10 6 7 7 7 5 4 4 2 2 1 1 1 6 12
7 8 8 8 8 8 9 11 12 7 9 9 9 9 12 11 9 8 7 8 9 9 9 11 10 11 12 13 14 11 9 8 7 6 4 4 3 3 2 1 1 2 5
Wind_Direction
11 358 340 324 314 317 326 328 282 279 275 271 266 258 250 253 260 262 227 189 192 194 193 195 199 202 203 201 201 200 199 198 196 194 193 191 187 183 182 180 178 175 173
23 352 314 323 310 310 346 295 278 270 266 258 261 266 262 257 255 264 254 207 203 204 202 201 204 207 209 208 206 205 204 202 200 198 197 196 193 190 188 187 185 184 182
13 346 311 314 350 332 309 282 282 268 258 258 255 262 261 256 250 251 257 242 219 213 211 210 209 209 211 212 212 209 207 206 203 201 200 199 197 196 194 192 191 190 190
10 338 325 350 355 325 309 293 271 293 310 314 301 282 269 253 248 242 241 242 236 227 220 218 215 213 213 215 216 214 211 208 206 204 203 201 200 199 198 197 196 195 195
3 352 332 344 336 320 319 324 6 0 330 320 294 265 257 253 250 250 235 231 229 229 226 221 218 217 218 220 220 218 215 211 209 207 206 205 203 202 201 200 199 199 199
19 3 311 7 351 323 338 352 337 312 287 275 283 297 288 265 250 246 244 235 224 224 227 226 219 222 223 223 222 221 219 215 212 209 208 207 206 204 202 201 201 201 201
13 316 325 349 321 331 345 326 329 315 301 278 285 291 280 262 241 230 231 239 234 229 231 221 217 219 223 225 226 224 222 219 216 212 210 209 208 206 204 203 203 203 203
358 330 25 334 346 338 306 308 309 305 309 320 320 311 306 296 325 264 224 217 230 236 244 236 221 222 226 222 225 227 226 223 220 216 213 211 209 207 205 205 204 204 205
341 334 333 336 340 320 329 339 319 318 313 316 308 301 311 335 338 319 321 272 218 234 240 242 231 230 231 232 228 228 228 226 224 221 217 213 210 208 206 205 205 206 206
273 289 311 327 331 315 315 317 3 338 319 310 311 305 283 310 306 319 320 316 276 244 235 249 253 236 234 235 235 234 232 229 226 225 222 217 212 209 207 206 207 208 208
237 225 211 280 316 296 314 332 325 318 312 309 316 319 309 288 251 260 292 309 308 286 244 223 226 230 238 238 241 241 236 233 228 226 224 221 216 212 210 209 210 211 211
257 185 177 96 304 304 327 320 310 299 294 302 305 304 305 300 296 289 287 295 297 300 295 262 226 226 232 238 246 257 242 235 231 227 226 225 222 217 213 212 212 213 213
325 69 37 353 298 302 293 282 287 286 288 290 288 280 289 298 299 297 293 296 300 300 292 270 228 207 218 206 227 265 258 242 235 230 229 229 226 222 217 215 215 215 215
311 339 297 274 271 274 283 294 294 283 278 279 279 280 281 280 284 288 287 291 295 294 290 283 245 194 165 169 206 240 257 253 242 234 231 230 229 225 221 217 215 215 215
302 322 325 302 286 276 272 276 273 279 282 277 277 280 271 276 278 275 281 279 276 285 288 296 296 230 185 193 195 222 244 251 249 240 232 230 229 226 222 218 215 213 213
294 298 288 286 284 280 272 264 268 269 271 269 264 268 273 271 278 286 282 278 271 271 280 288 293 285 262 239 207 227 244 253 252 246 237 232 230 226 223 219 216 213 212
286 282 279 278 277 275 269 261 260 264 265 264 267 268 264 263 265 274 279 276 273 269 273 280 281 285 275 270 246 241 252 245 247 245 238 233 228 225 222 218 217 215 213
283 286 286 285 284 284 282 275 270 272 271 272 270 270 270 271 263 258 263 269 270 270 269 275 279 282 274 262 250 241 249 255 248 243 236 232 227 224 222 219 218 216 214
283 284 286 286 286 287 282 274 268 267 267 270 272 272 272 271 271 266 266 268 274 276 274 274 277 275 275 268 262 254 248 243 250 246 233 228 227 223 219 218 217 217 216
280 277 277 280 283 284 279 274 272 268 266 267 268 268 268 266 265 264 265 259 263 270 276 276 272 269 266 263 256 253 254 238 239 245 240 233 226 222 219 215 216 217 216
278 282 285 284 282 279 278 293 293 286 293 292 284 276 271 266 262 258 263 263 271 273 276 280 278 277 271 271 268 263 260 254 236 224 232 230 218 216 217 219 217 217 216
272 275 276 281 282 284 308 293 281 298 295 289 284 281 280 271 259 246 244 247 249 256 263 269 277 279 284 291 298 300 291 278 268 232 222 238 221 221 215 213 213 213 214
276 275 274 276 277 278 265 248 245 265 278 277 277 277 279 279 290 277 256 248 247 247 244 250 262 268 277 288 304 304 301 296 281 267 245 255 231 228 218 216 206 207 209
273 275 274 274 273 275 260 240 237 249 268 269 267 266 265 267 273 273 275 267 258 253 245 241 243 251 257 263 272 281 285 287 276 252 215 236 230 214 216 194 203 205 206
270 271 273 268 269 269 251 234 224 254 266 270 268 268 264 262 259 249 252 262 266 266 265 255 238 238 240 247 250 265 272 276 278 264 221 212 207 192 181 192 179 201 202
268 271 270 269 272 274 258 231 212 245 266 274 276 272 269 263 251 231 240 255 265 270 278 286 275 260 252 248 238 234 244 254 263 264 222 195 191 178 179 181 168 173 185
Height
1549 1549 1548 1548 1548 1547 1548 1548 1548 1548 1549 1549 1550 1550 1551 1552 1553 1554 1555 1556 1558 1560 1562 1564 1567 1569 1571 1573 1575 1577 1580 1582 1585 1587 1590 1592 1594 1596 1598 1600 1602 1604 1605
1547 1547 1547 1546 1546 1546 1545 1545 1546 1546 1546 1546 1547 1547 1547 1548 1549 1550 1552 1553 1554 1556 1558 1560 1562 1565 1567 1570 1572 1574 1577 1579 1582 1584 1587 1590 1592 1594 1596 1599 1601 1603 1605
1546 1545 1545 1544 1544 1544 1543 1544 1544 1544 1544 1544 1544 1544 1544 1545 1545 1546 1548 1549 1550 1551 1553 1555 1558 1560 1563 1565 1568 1571 1573 1576 1579 1581 1584 1587 1589 1592 1594 1597 1599 1601 1603
1545 1544 1543 1543 1542 1542 1542 1542 1542 1542 1541 1541 1541 1542 1542 1541 1541 1542 1543 1544 1546 1547 1548 1550 1552 1555 1557 1560 1563 1566 1569 1572 1574 1577 1580 1583 1586 1589 1591 1594 1597 1599 1602
1544 1543 1542 1541 1541 1540 1541 1540 1540 1539 1539 1538 1538 1539 1538 1538 1538 1539 1539 1539 1541 1542 1544 1545 1547 1549 1552 1555 1558 1560 1564 1567 1570 1573 1576 1579 1582 1585 1588 1591 1594 1596 1599
1542 1541 1541 1540 1539 1539 1539 1538 1537 1537 1537 1537 1537 1536 1535 1534 1534 1534 1535 1536 1537 1538 1539 1540 1542 1543 1546 1548 1551 1554 1558 1561 1564 1568 1571 1574 1577 1580 1584 1587 1590 1593 1596
1541 1540 1539 1538 1538 1538 1537 1536 1536 1535 1535 1535 1535 1534 1533 1531 1530 1530 1531 1533 1534 1534 1535 1536 1537 1539 1540 1542 1545 1548 1551 1555 1558 1562 1565 1569 1572 1576 1579 1582 1586 1589 1592
1539 1540 1538 1537 1536 1535 1535 1534 1534 1533 1533 1533 1533 1532 1531 1529 1527 1528 1528 1529 1530 1531 1531 1532 1532 1534 1535 1537 1538 1541 1545 1548 1551 1555 1559 1563 1567 1570 1574 1577 1581 1584 1588
1538 1537 1536 1535 1534 1534 1533 1533 1532 1531 1531 1531 1531 1532 1531 1528 1527 1526 1527 1527 1528 1528 1528 1528 1529 1529 1530 1531 1533 1535 1537 1540 1544 1547 1552 1556 1560 1564 1568 1572 1576 1579 1583
1537 1536 1534 1533 1532 1532 1531 1531 1531 1529 1529 1529 1529 1530 1530 1529 1529 1526 1525 1525 1526 1525 1525 1525 1525 1525 1526 1526 1527 1529 1530 1533 1536 1540 1544 1549 1553 1557 1561 1566 1570 1573 1577
1535 1534 1533 1532 1531 1530 1530 1529 1528 1527 1527 1527 1527 1527 1527 1527 1527 1527 1525 1524 1523 1523 1523 1522 1522 1522 1522 1522 1522 1523 1524 1526 1529 1532 1536 1541 1545 1550 1554 1559 1563 1567 1571
1534 1533 1532 1530 1529 1528 1527 1526 1525 1525 1524 1524 1524 1524 1524 1524 1524 1524 1523 1522 1521 1520 1520 1519 1519 1518 1518 1517 1517 1518 1519 1520 1522 1525 1528 1533 1537 1542 1546 1551 1556 1560 1564
1533 1531 1530 1528 1527 1526 1525 1524 1523 1522 1522 1521 1521 1521 1521 1521 1521 1521 1521 1519 1518 1517 1517 1516 1515 1514 1514 1513 1513 1513 1513 1514 1515 1518 1521 1524 1529 1534 1538 1543 1548 1553 1557
1530 1529 1528 1526 1524 1523 1522 1521 1520 1519 1519 1518 1518 1518 1517 1517 1517 1517 1517 1517 1515 1514 1514 1513 1512 1511 1510 1509 1509 1508 1508 1508 1509 1510 1513 1516 1520 1525 1529 1534 1539 1544 1549
1527 1526 1524 1523 1522 1521 1519 1518 1517 1516 1516 1515 1514 1514 1514 1513 1513 1513 1513 1513 1513 1511 1510 1509 1509 1508 1507 1506 1505 1504 1504 1503 1503 1504 1506 1508 1512 1516 1520 1525 1531 1536 1541
1524 1522 1521 1520 1518 1517 1516 1515 1514 1513 1512 1512 1511 1510 1510 1509 1509 1509 1509 1509 1509 1508 1506 1505 1505 1505 1504 1503 1501 1500 1499 1499 1498 1499 1499 1501 1504 1507 1511 1516 1522 1527 1532
1520 1519 1518 1516 1515 1514 1513 1511 1510 1509 1509 1508 1507 1506 1506 1505 1505 1504 1504 1504 1504 1504 1502 1501 1501 1500 1500 1499 1498 1497 1495 1494 1493 1493 1493 1495 1497 1499 1503 1507 1513 1518 1524
1517 1516 1514 1513 1512 1510 1509 1508 1506 1506 1505 1504 1503 1502 1501 1501 1500 1500 1499 1499 1499 1499 1498 1496 1496 1495 1495 1494 1493 1492 1491 1489 1488 1488 1488 1488 1489 1492 1495 1499 1504 1509 1515
1514 1512 1511 1509 1508 1506 1505 1504 1502 1501 1500 1499 1499 1498 1497 1496 1495 1495 1494 1494 1494 1494 1493 1492 1490 1490 1490 1490 1489 1488 1486 1485 1484 1483 1483 1482 1483 1485 1488 1492 1496 1501 1506
1510 1509 1507 1506 1504 1502 1501 1500 1498 1497 1496 1495 1494 1493 1492 1491 1490 1490 1489 1489 1489 1488 1488 1487 1486 1485 1485 1484 1484 1483 1482 1481 1479 1478 1478 1478 1478 1480 1482 1485 1489 1493 1498
1507 1505 1503 1502 1500 1499 1497 1496 1495 1494 1492 1490 1489 1488 1487 1486 1485 1485 1484 1484 1484 1483 1482 1482 1481 1480 1480 1480 1479 1478 1477 1476 1475 1474 1473 1473 1474 1474 1476 1479 1482 1486 1490
1503 1501 1499 1497 1496 1495 1494 1492 1490 1488 1486 1485 1483 1482 1481 1480 1480 1479 1478 1478 1478 1478 1477 1476 1475 1475 1475 1475 1474 1474 1473 1472 1471 1471 1470 1469 1470 1470 1471 1473 1476 1479 1483
1499 1497 1495 1493 1491 1490 1488 1486 1485 1483 1481 1479 1477 1476 1475 1475 1475 1474 1472 1472 1471 1471 1471 1470 1469 1468 1468 1469 1469 1468 1468 1467 1466 1466 1466 1465 1465 1465 1466 1468 1470 1473 1477
1494 1492 1490 1488 1486 1485 1483 1482 1480 1478 1475 1473 1472 1471 1470 1469 1468 1468 1466 1465 1465 1464 1464 1463 1462 1462 1462 1463 1463 1464 1463 1462 1461 1461 1462 1461 1461 1461 1462 1463 1465 1468 1470
1490 1487 1486 1484 1482 1480 1479 1477 1475 1473 1470 1468 1467 1466 1465 1464 1462 1462 1461 1459 1458 1457 1457 1457 1456 1455 1455 1456 1457 1457 1457 1458 1457 1456 1457 1457 1457 1457 1458 1459 1461 1463 1465
1485 1483 1481 1479 1478 1475 1474 1472 1470 1468 1466 1464 1463 1462 1460 1459 1457 1456 1455 1453 1452 1451 1450 1449 1449 1448 1448 1448 1449 1450 1451 1452 1452 1452 1452 1453 1453 1454 1455 1455 1457 1458 1460